Temp
5 6 6 7 7 6 6 5 6 6 6 6 6 6 6 7 6 6 7 7 7 8 7 7 7 7 7 8 7 8 7 5 5 6 4 6 7 7 7 7 9 9 8 8 8
6 6 6 7 7 6 6 5 6 6 6 6 6 6 6 6 6 6 6 6 7 7 7 7 7 7 7 7 7 7 6 4 4 4 4 6 7 7 7 7 8 8 7 8 8
6 6 7 7 7 7 5 5 6 6 5 5 6 6 6 6 6 6 6 6 6 6 6 7 7 7 7 7 7 7 6 3 3 4 4 5 6 6 7 7 7 7 7 7 7
6 7 7 7 7 7 5 5 5 6 5 5 5 5 5 5 6 6 5 6 6 6 6 6 7 7 7 7 6 6 5 4 2 3 5 5 5 5 6 6 6 6 6 6 6
6 7 7 7 7 7 6 5 6 6 5 5 5 5 5 5 5 5 5 6 6 6 6 6 6 6 7 7 6 5 5 4 3 2 4 4 5 6 4 4 4 5 6 6 6
6 7 7 6 6 6 6 5 5 5 5 5 5 5 5 5 5 5 5 5 6 6 6 6 6 6 6 6 6 5 5 5 3 3 2 2 3 4 4 4 4 4 5 6 6
6 7 6 6 6 6 6 5 5 5 5 4 5 4 5 5 4 4 5 5 5 5 5 6 6 6 5 5 4 4 4 4 4 4 3 2 2 2 2 3 3 4 4 4 5
6 7 6 6 5 5 5 5 5 5 4 4 4 4 4 4 4 4 4 4 5 5 5 5 5 5 5 4 3 2 2 3 3 3 3 3 -0 -0 0 1 2 3 3 3 4
5 6 5 5 5 5 5 5 4 4 4 4 4 4 3 3 4 4 4 4 4 4 4 4 3 5 4 3 3 2 1 0 1 1 1 2 0 -1 -1 -0 0 1 2 2 2
4 5 5 5 5 4 5 4 4 4 4 3 3 3 2 3 3 4 4 4 5 4 4 4 4 4 2 2 1 0 0 -0 -0 0 -1 -1 -1 -2 -2 -2 -1 -2 -1 -1 -0
4 4 5 4 4 4 5 4 4 4 4 3 3 3 2 2 3 3 4 4 5 5 5 5 5 4 1 1 -0 -1 -1 -2 -3 -3 -2 -2 -1 -2 -2 -3 -3 -3 -3 -3 -2
4 3 4 4 3 4 4 4 4 4 4 3 3 2 2 3 2 3 4 3 3 5 5 4 5 1 -1 -1 -1 -2 -2 -2 -2 -3 -2 -3 -3 -3 -3 -3 -3 -3 -3 -3 -4
3 3 3 3 3 4 4 4 4 4 4 2 2 2 2 3 2 3 3 3 4 4 4 5 1 -1 -0 -1 -0 -1 -2 -3 -4 -3 -4 -3 -4 -4 -4 -4 -4 -4 -4 -5 -4
3 2 3 3 3 3 4 4 3 3 3 2 2 2 2 2 2 3 3 3 3 3 2 2 -1 -1 -1 0 -0 -1 -2 -3 -4 -4 -4 -4 -3 -4 -4 -4 -4 -4 -5 -5 -4
3 2 2 2 3 3 3 3 3 3 0 1 1 1 1 2 1 1 2 2 2 2 2 -1 -2 -1 0 -1 -1 -2 -2 -3 -4 -4 -5 -6 -5 -4 -4 -5 -5 -5 -5 -4 -4
2 2 2 2 2 3 3 2 3 3 0 0 -0 -0 0 1 1 1 1 1 1 1 -0 -0 -1 -2 -2 -2 -2 -2 -3 -3 -4 -5 -4 -6 -6 -5 -5 -5 -5 -5 -5 -5 -4
2 1 1 2 2 3 2 2 2 2 0 -0 -0 0 0 0 0 -0 -0 0 0 -0 -1 -2 -2 -2 -3 -3 -3 -3 -3 -5 -4 -5 -4 -6 -6 -5 -6 -6 -5 -5 -5 -5 -5
1 1 1 1 2 2 2 2 2 1 0 0 -0 -0 -0 -0 -0 -0 -1 -1 -1 -1 -1 -3 -5 -3 -3 -3 -4 -4 -4 -5 -4 -5 -5 -6 -5 -6 -6 -6 -6 -6 -6 -6 -6
0 1 1 1 1 2 2 1 2 2 1 1 -0 -1 -0 -0 -1 -1 -1 -1 -2 -1 -1 -3 -5 -5 -5 -5 -4 -5 -6 -6 -8 -8 -8 -7 -6 -6 -6 -6 -7 -7 -7 -6 -6
0 -0 0 1 1 1 1 1 1 2 1 0 0 -1 -0 -1 -1 -1 -1 -2 -2 -2 -2 -3 -5 -6 -6 -6 -6 -6 -6 -8 -8 -8 -7 -7 -8 -6 -7 -7 -7 -7 -7 -7 -7
-0 -1 -0 0 0 0 0 1 1 1 1 0 -0 -0 -1 -1 -1 -1 -1 -2 -2 -3 -3 -3 -4 -5 -6 -7 -7 -7 -7 -7 -8 -9 -8 -7 -6 -6 -7 -7 -6 -6 -7 -8 -8
-1 -1 -1 -0 -0 -0 -0 0 1 1 0 0 -1 -1 -1 -1 -2 -2 -2 -2 -2 -3 -3 -3 -4 -5 -6 -6 -7 -7 -8 -8 -8 -9 -10 -9 -7 -6 -7 -7 -7 -7 -8 -8 -8
-1 -1 -1 -0 -0 -0 -0 0 0 0 -0 -1 -1 -1 -1 -2 -2 -3 -3 -3 -3 -4 -4 -4 -5 -5 -7 -7 -7 -8 -8 -8 -9 -9 -10 -9 -7 -6 -7 -7 -7 -7 -8 -8 -8
-2 -2 -1 -1 -0 -0 0 0 0 -0 -1 -1 -1 -1 -2 -2 -2 -2 -3 -3 -4 -4 -5 -5 -5 -5 -5 -6 -6 -7 -7 -8 -9 -10 -9 -9 -7 -6 -7 -7 -7 -7 -7 -7 -8
-2 -2 -1 -1 -1 -1 -1 -1 -0 -0 -1 -1 -2 -2 -2 -2 -3 -3 -3 -4 -5 -5 -5 -6 -6 -6 -6 -6 -7 -6 -7 -8 -8 -8 -9 -7 -8 -6 -7 -7 -7 -7 -7 -7 -7
-2 -2 -1 -1 -1 -1 -1 -1 -1 -1 -1 -1 -2 -2 -2 -3 -3 -2 -3 -4 -5 -5 -6 -6 -7 -7 -6 -6 -7 -6 -6 -7 -7 -8 -9 -8 -7 -7 -7 -7 -7 -7 -7 -7 -8
-3 -2 -2 -1 -1 -1 -1 -1 -1 -2 -2 -2 -2 -2 -3 -3 -3 -4 -4 -5 -5 -5 -6 -7 -8 -8 -8 -7 -7 -6 -4 -5 -5 -6 -6 -7 -6 -8 -7 -7 -7 -8 -7 -8 -8
Height
3145 3145 3145 3145 3148 3151 3153 3153 3157 3157 3154 3153 3154 3152 3153 3153 3153 3155 3157 3158 3157 3158 3161 3161 3161 3163 3165 3166 3168 3170 3173 3175 3178 3182 3185 3184 3187 3189 3188 3191 3191 3191 3193 3194 3195
3144 3145 3146 3145 3146 3150 3154 3156 3157 3157 3155 3154 3154 3153 3153 3154 3155 3155 3157 3157 3158 3160 3161 3161 3161 3164 3165 3167 3170 3170 3172 3174 3179 3183 3184 3183 3186 3188 3191 3192 3191 3192 3193 3194 3196
3143 3144 3145 3146 3147 3150 3155 3157 3158 3158 3156 3155 3155 3154 3154 3155 3156 3155 3157 3158 3159 3160 3161 3162 3163 3165 3167 3169 3171 3172 3173 3175 3178 3183 3184 3183 3185 3186 3188 3190 3190 3192 3193 3193 3195
3143 3145 3146 3145 3148 3151 3154 3157 3158 3157 3157 3154 3156 3156 3155 3155 3159 3157 3157 3159 3160 3161 3163 3164 3165 3166 3167 3170 3172 3173 3176 3176 3177 3180 3184 3184 3184 3183 3185 3187 3188 3190 3191 3192 3193
3141 3142 3144 3146 3147 3151 3154 3157 3157 3158 3156 3156 3155 3155 3156 3155 3157 3159 3159 3159 3160 3161 3163 3164 3165 3166 3169 3171 3172 3175 3176 3176 3177 3178 3181 3183 3184 3185 3184 3185 3187 3188 3189 3190 3191
3140 3141 3142 3145 3147 3150 3153 3155 3156 3157 3157 3156 3156 3154 3156 3157 3158 3159 3158 3159 3159 3161 3162 3163 3164 3165 3167 3169 3171 3173 3175 3177 3177 3177 3178 3182 3183 3183 3183 3182 3183 3184 3186 3186 3188
3138 3138 3142 3143 3145 3148 3152 3153 3156 3155 3156 3154 3155 3155 3156 3158 3158 3159 3158 3158 3160 3160 3161 3161 3162 3164 3166 3167 3169 3170 3175 3176 3176 3177 3178 3177 3179 3178 3179 3179 3179 3179 3179 3182 3182
3134 3136 3141 3142 3145 3147 3150 3152 3154 3154 3155 3153 3156 3157 3157 3158 3160 3161 3160 3159 3160 3160 3161 3160 3160 3162 3163 3165 3168 3171 3173 3174 3174 3175 3175 3177 3178 3174 3174 3173 3174 3175 3175 3174 3176
3134 3133 3137 3141 3142 3145 3148 3150 3152 3153 3156 3154 3156 3159 3159 3159 3160 3161 3161 3160 3159 3159 3160 3159 3160 3161 3163 3165 3168 3170 3170 3172 3173 3173 3173 3175 3175 3173 3172 3170 3170 3170 3169 3170 3171
3132 3131 3134 3138 3141 3144 3146 3149 3152 3154 3156 3157 3158 3161 3161 3160 3161 3161 3161 3162 3161 3161 3162 3162 3162 3161 3164 3166 3168 3170 3170 3171 3172 3173 3171 3173 3173 3172 3171 3168 3167 3166 3167 3166 3165
3130 3131 3132 3136 3139 3142 3146 3148 3154 3156 3156 3158 3160 3160 3161 3161 3162 3162 3162 3162 3162 3161 3162 3162 3163 3160 3163 3166 3167 3169 3170 3170 3170 3170 3170 3171 3172 3171 3169 3168 3167 3166 3164 3163 3163
3127 3129 3130 3133 3138 3141 3144 3147 3150 3155 3155 3159 3161 3163 3163 3163 3164 3164 3163 3164 3163 3163 3162 3164 3161 3164 3166 3167 3169 3170 3169 3169 3169 3168 3169 3170 3170 3169 3169 3168 3166 3164 3162 3161 3160
3124 3128 3128 3131 3137 3141 3144 3147 3150 3152 3156 3159 3160 3163 3164 3165 3164 3165 3165 3164 3164 3163 3162 3162 3165 3167 3168 3168 3168 3168 3168 3167 3168 3166 3166 3168 3168 3167 3167 3166 3165 3164 3161 3159 3157
3121 3125 3125 3129 3137 3139 3143 3146 3150 3151 3155 3160 3161 3163 3164 3164 3165 3165 3165 3167 3165 3164 3163 3164 3165 3167 3167 3167 3166 3166 3166 3166 3165 3165 3166 3165 3168 3166 3166 3166 3164 3162 3160 3157 3156
3120 3123 3124 3128 3134 3138 3143 3145 3149 3153 3155 3160 3160 3160 3161 3164 3165 3165 3165 3165 3164 3163 3165 3167 3167 3166 3166 3166 3165 3167 3164 3163 3163 3163 3164 3165 3166 3163 3164 3164 3163 3161 3158 3157 3155
3118 3120 3124 3128 3132 3137 3141 3144 3149 3154 3154 3156 3157 3159 3162 3163 3164 3165 3165 3166 3165 3165 3165 3166 3167 3167 3166 3165 3165 3164 3163 3162 3162 3162 3165 3165 3167 3164 3162 3163 3161 3159 3156 3154 3152
3114 3120 3123 3126 3132 3135 3139 3144 3150 3149 3154 3155 3156 3158 3160 3162 3163 3164 3165 3165 3165 3165 3166 3167 3167 3167 3167 3165 3165 3164 3161 3162 3164 3164 3166 3165 3166 3163 3161 3160 3159 3158 3155 3152 3149
3114 3117 3121 3125 3129 3133 3138 3143 3146 3146 3148 3151 3153 3156 3159 3161 3162 3163 3164 3165 3165 3165 3165 3166 3167 3168 3168 3166 3164 3163 3162 3162 3162 3166 3168 3165 3165 3164 3161 3160 3158 3156 3153 3150 3147
3110 3115 3119 3123 3126 3131 3136 3139 3141 3144 3146 3148 3151 3155 3158 3159 3162 3163 3164 3164 3164 3164 3166 3166 3167 3166 3166 3165 3165 3164 3164 3166 3166 3169 3169 3165 3164 3162 3159 3158 3156 3153 3149 3146 3143
3107 3113 3118 3121 3124 3129 3134 3135 3139 3142 3144 3146 3149 3152 3154 3158 3161 3161 3162 3164 3164 3164 3164 3165 3166 3166 3165 3165 3165 3165 3165 3165 3166 3167 3166 3163 3162 3160 3158 3156 3152 3147 3144 3141 3138
3104 3110 3115 3119 3123 3127 3129 3132 3136 3140 3143 3146 3148 3149 3152 3155 3158 3159 3161 3162 3162 3163 3163 3163 3165 3167 3164 3164 3164 3164 3164 3164 3165 3166 3166 3165 3158 3157 3155 3152 3147 3144 3140 3136 3133
3101 3107 3111 3115 3120 3122 3127 3130 3134 3137 3141 3143 3146 3148 3149 3152 3156 3158 3159 3160 3161 3162 3162 3162 3164 3164 3164 3162 3162 3162 3162 3163 3163 3165 3165 3165 3157 3153 3152 3149 3145 3142 3138 3135 3131
3097 3104 3108 3112 3115 3118 3123 3127 3130 3134 3138 3141 3143 3145 3147 3150 3155 3154 3156 3158 3159 3160 3160 3160 3161 3162 3161 3164 3161 3159 3159 3159 3161 3161 3160 3162 3153 3150 3149 3147 3143 3139 3137 3133 3130
3096 3100 3104 3108 3110 3116 3120 3124 3127 3131 3134 3137 3140 3142 3144 3147 3150 3151 3153 3155 3156 3157 3158 3158 3157 3158 3159 3158 3158 3156 3156 3156 3155 3156 3153 3148 3146 3147 3145 3142 3140 3137 3135 3131 3127
3091 3095 3099 3101 3106 3112 3117 3121 3124 3128 3131 3134 3137 3139 3141 3145 3147 3148 3150 3151 3152 3154 3155 3155 3153 3154 3155 3154 3153 3151 3150 3149 3147 3147 3146 3143 3141 3142 3141 3139 3137 3134 3131 3128 3125
3087 3092 3096 3100 3105 3109 3111 3116 3121 3125 3130 3132 3134 3136 3139 3142 3144 3144 3146 3147 3149 3150 3151 3151 3150 3150 3150 3149 3147 3144 3142 3141 3139 3138 3136 3137 3135 3138 3137 3135 3133 3131 3128 3125 3122
3084 3089 3094 3098 3101 3105 3108 3113 3118 3123 3128 3129 3131 3135 3137 3139 3140 3142 3143 3144 3145 3146 3147 3148 3149 3148 3144 3143 3142 3136 3131 3131 3132 3130 3131 3130 3130 3132 3131 3130 3129 3127 3124 3120 3117
Wind_Speed
10 10 10 9 7 4 1 2 3 2 3 5 4 7 7 7 7 6 4 4 4 3 1 3 5 7 9 10 11 10 7 13 14 11 9 6 8 11 17 11 11 11 13 14 14
11 10 9 9 7 3 2 5 5 2 1 3 3 5 6 6 5 5 5 3 4 3 3 1 4 7 8 11 11 11 11 10 11 10 7 2 5 8 13 11 13 12 11 12 14
11 10 8 7 5 1 4 9 6 4 2 3 2 3 3 4 6 7 6 4 4 5 5 4 4 5 7 10 10 12 11 8 7 7 5 1 4 2 7 13 13 13 10 7 8
11 9 7 6 3 3 6 8 10 8 4 1 1 2 3 5 4 6 6 4 3 6 5 5 4 4 6 9 10 12 11 5 4 4 4 3 3 7 5 7 7 6 7 7 5
11 10 6 3 1 4 8 11 11 10 6 3 1 1 2 6 9 6 4 4 4 5 5 4 2 3 5 7 7 5 8 3 2 5 4 2 4 5 6 6 8 11 11 11 10
12 10 7 3 3 5 10 10 12 10 7 2 2 2 2 3 6 4 4 3 5 5 3 2 2 3 4 8 9 9 8 5 4 2 5 2 5 7 11 14 17 17 17 18 17
10 7 5 3 4 5 8 9 12 10 7 6 4 4 3 4 4 3 3 4 5 4 3 2 2 5 7 9 9 9 8 10 9 6 5 8 8 9 11 16 20 22 23 21 22
11 7 4 4 4 5 7 9 11 9 9 8 5 5 6 6 3 2 2 3 5 5 5 4 5 4 6 10 9 8 4 2 2 1 3 5 5 12 15 20 22 24 26 28 26
10 8 5 4 4 6 8 8 10 9 9 8 7 4 4 6 5 5 6 7 7 8 8 8 10 9 10 9 11 11 12 10 5 8 7 4 5 13 18 20 20 22 25 26 28
10 9 7 5 4 5 7 8 10 10 9 7 6 4 5 7 4 4 3 5 6 7 8 10 9 17 19 8 10 12 11 10 9 10 11 9 7 10 14 19 21 23 23 26 27
10 9 9 6 6 7 8 10 11 11 9 5 4 2 5 6 7 4 3 6 6 10 5 10 10 19 21 19 15 12 11 9 9 11 8 8 6 9 14 15 15 17 19 21 23
11 9 9 8 8 9 11 11 11 10 9 4 4 3 3 4 6 3 6 6 7 3 6 9 17 19 15 12 10 10 10 11 7 9 6 5 5 4 7 10 15 19 21 22 24
11 10 10 10 10 10 11 11 11 9 8 7 6 4 2 4 3 4 7 6 5 5 12 12 15 14 9 10 9 11 13 11 9 10 3 8 3 3 4 6 11 16 17 18 22
12 11 13 13 12 12 12 12 10 9 6 7 6 4 3 4 3 5 4 5 5 8 7 12 13 10 10 11 13 11 10 7 5 6 2 7 0 3 0 5 13 16 14 12 15
12 12 14 14 13 13 13 13 10 9 3 6 8 7 3 4 5 5 4 8 7 10 9 9 9 9 11 15 14 10 8 5 2 3 3 7 1 4 5 8 9 10 5 7 12
13 14 15 15 15 14 14 13 13 6 3 8 10 9 5 4 3 3 5 5 7 8 10 10 8 7 16 14 12 12 9 4 4 2 3 1 6 2 4 8 5 4 6 9 15
14 14 16 16 16 16 16 17 10 4 7 8 10 11 7 4 2 4 3 4 4 3 5 5 7 8 13 12 10 11 8 3 2 3 2 2 7 6 10 10 8 10 14 18 19
14 16 16 17 17 17 18 19 5 9 12 9 11 13 8 6 3 1 1 1 4 5 4 3 1 5 10 12 9 14 14 5 1 2 5 9 2 7 13 15 14 15 21 27 26
15 16 17 18 18 19 20 21 7 8 11 13 15 14 10 9 3 2 2 1 1 4 3 2 1 1 8 9 10 5 8 7 4 0 3 4 5 9 10 14 19 26 30 29 32
16 17 18 19 20 20 22 18 12 9 10 14 14 12 9 9 6 3 2 2 1 1 4 3 1 2 6 5 7 6 6 3 2 1 1 4 5 5 13 12 19 26 31 33 33
18 19 20 20 21 22 25 21 16 11 11 15 15 11 9 8 9 6 3 4 4 2 4 5 1 3 5 2 0 2 2 2 2 3 1 3 3 8 17 20 23 23 23 23 20
19 21 22 23 25 26 24 22 18 16 13 15 13 12 9 8 7 7 7 7 3 5 5 2 3 2 5 5 5 4 3 2 2 4 5 2 8 10 15 16 18 16 13 13 17
21 21 21 24 24 26 24 22 20 17 16 15 14 14 12 9 7 9 8 7 7 6 3 5 2 3 3 4 8 11 10 9 7 7 9 7 6 11 13 13 13 13 14 14 17
22 21 22 25 26 24 23 22 21 19 18 18 15 14 11 11 13 6 8 7 8 8 8 9 8 8 8 8 12 14 13 13 14 10 10 20 24 9 13 12 11 11 15 17 19
24 21 23 26 29 22 22 15 20 20 20 19 17 14 11 12 13 14 13 11 11 11 10 10 12 13 14 15 16 19 21 22 25 26 20 18 23 15 14 12 11 14 18 21 20
26 20 22 17 27 25 22 22 16 19 14 16 17 13 12 12 11 7 9 12 12 10 11 15 12 12 19 20 17 21 24 27 29 30 32 30 28 12 14 14 13 14 20 20 20
25 23 18 21 18 26 23 19 18 15 15 14 14 11 11 11 12 11 10 10 12 12 13 14 12 12 9 11 13 21 8 14 21 29 30 29 22 15 17 17 15 14 19 18 21
Wind_Direction
159 147 136 123 111 80 61 277 252 228 130 107 118 110 104 92 95 103 115 109 101 112 216 142 93 101 116 127 150 164 151 118 107 128 66 133 123 110 93 114 164 142 142 153 146
164 148 142 125 111 69 330 286 258 225 139 131 128 99 94 98 93 89 90 103 106 140 150 129 73 101 118 128 137 148 138 110 115 103 75 141 158 147 131 127 137 146 145 164 168
171 161 151 131 117 42 308 291 280 271 201 167 136 108 104 84 81 75 81 89 112 104 83 106 109 119 124 123 131 129 133 120 97 112 91 261 258 183 184 170 147 154 152 149 181
182 173 157 149 150 287 296 287 285 278 284 225 179 118 102 101 103 107 98 95 92 88 87 91 107 111 121 127 132 143 134 151 64 65 120 259 279 281 262 191 204 194 180 181 196
188 185 172 173 171 287 287 288 281 280 267 272 222 92 92 84 100 107 117 109 99 76 65 72 87 128 144 147 143 135 141 171 15 7 346 291 260 273 272 266 251 248 243 232 227
198 190 192 192 233 271 276 280 273 267 254 239 251 129 121 106 88 98 93 75 67 65 61 73 151 166 170 166 172 173 184 198 227 345 358 251 280 255 262 269 274 266 260 256 249
203 195 213 226 254 266 270 269 266 259 237 177 185 151 132 103 105 73 30 33 42 51 72 100 154 166 164 162 158 174 181 200 219 255 295 289 297 314 281 273 274 272 272 264 262
208 202 208 232 255 267 267 264 252 239 215 168 170 133 107 106 108 98 35 21 52 58 57 61 87 107 141 141 144 142 145 122 38 156 261 251 359 317 311 299 286 279 274 276 267
203 190 189 226 249 268 264 254 237 210 213 166 152 146 121 101 54 19 13 14 20 35 38 60 61 105 99 116 110 93 81 64 56 30 11 10 360 321 320 314 309 301 295 290 283
200 179 176 192 214 230 243 226 206 194 190 174 163 138 133 105 99 77 29 7 23 30 45 63 88 82 81 97 76 68 61 44 31 26 14 26 11 335 330 326 328 329 321 312 307
198 177 168 169 180 189 210 195 194 185 178 173 178 225 126 87 70 58 62 49 35 40 62 82 91 60 49 51 55 52 59 50 53 10 22 35 30 348 338 338 337 340 339 333 325
198 175 157 156 172 183 194 192 195 179 167 159 146 139 110 101 66 79 61 52 47 52 68 86 60 58 49 48 50 58 50 50 31 12 20 36 354 19 343 345 348 346 339 329 323
194 179 158 158 174 187 195 191 185 174 162 146 154 148 124 108 87 73 71 78 77 77 73 72 76 64 56 47 39 47 34 25 4 11 62 14 122 61 23 358 348 335 329 324 335
194 183 160 163 181 187 190 188 186 172 162 169 176 158 167 176 115 71 67 66 60 62 74 60 72 48 41 37 38 41 16 360 343 0 27 24 150 213 297 331 333 327 324 337 341
198 186 167 169 182 187 188 182 183 177 83 187 195 186 161 170 170 64 72 68 67 64 65 93 64 47 24 31 32 17 5 355 36 40 28 30 353 223 284 323 330 332 317 339 345
197 187 175 176 181 184 184 175 172 174 156 179 185 180 168 142 125 90 61 72 80 68 80 87 57 39 25 18 24 13 360 74 64 64 77 145 3 296 304 315 298 297 305 323 335
195 192 181 178 182 182 182 173 169 188 184 188 188 182 185 176 138 84 74 60 58 56 71 91 47 33 16 15 22 21 31 81 91 37 27 255 329 272 294 307 303 280 309 319 324
195 191 186 182 185 180 183 177 182 187 176 172 180 190 191 189 186 180 16 48 54 55 90 66 10 27 10 17 16 31 49 59 39 5 321 322 255 320 315 301 288 292 309 310 308
193 191 190 186 185 185 185 183 194 192 198 191 179 190 196 206 217 247 275 250 86 46 63 72 134 333 17 30 26 26 66 73 109 197 267 304 312 328 325 315 301 299 296 293 293
190 190 194 189 185 188 188 197 200 200 193 193 185 188 194 200 199 205 256 217 244 32 20 12 154 238 357 25 37 60 49 56 45 86 308 277 280 323 349 321 290 290 291 292 294
188 190 193 190 187 192 199 202 206 205 199 191 201 189 197 194 203 209 236 244 266 271 335 338 312 228 324 325 75 76 86 108 117 134 175 297 220 359 349 335 326 321 310 318 319
192 195 192 190 188 197 202 207 208 213 208 207 208 215 203 204 217 224 227 233 251 278 312 301 316 238 289 285 246 249 217 199 189 200 197 227 270 1 349 347 333 338 341 335 323
194 200 195 195 197 201 203 205 209 212 212 214 214 215 219 215 212 227 235 242 245 255 258 310 251 287 284 274 255 251 251 230 232 227 214 184 254 327 328 338 352 347 347 348 341
193 195 197 198 205 206 209 206 206 209 213 215 218 217 216 215 219 233 227 233 236 244 270 289 267 249 248 277 279 268 272 247 242 226 233 240 278 308 318 318 332 345 342 338 336
194 200 201 205 205 203 200 209 212 210 212 213 220 220 227 222 225 231 241 237 240 252 264 275 276 282 288 289 282 277 265 259 253 257 244 267 282 295 308 299 322 324 328 329 326
198 200 203 200 203 204 200 206 208 211 215 216 219 218 229 228 230 244 237 237 245 251 258 266 271 285 291 294 285 277 269 258 258 256 257 263 274 289 295 281 308 315 316 325 333
201 203 201 205 199 203 206 205 206 204 210 207 211 224 222 222 234 245 247 247 254 264 266 264 267 289 281 290 300 288 281 258 264 265 261 259 290 273 285 291 301 310 317 320 323